Weather in Karaul

Russia / Krasnoyarsk Krai     70°04′12″N   83°12′31″E
temp.,
°C
wind,
m/s
gust,
m/s
humid.,
%
clouds,
%
prec.,
mm/h
press.,
hPa
HPBL,
m
7 march, sun
sun701:00−29ne359598 0.0 1002192
04:00−29ne3497100 0.1 1002181
07:00−29ne349797 0.2 1002122
10:00−29ne239798 0.0 100275
13:00−28nne239596 0.1 1003181
16:00−26nne239596 0.1 1003196
19:00−26n239798 0.1 1005117
22:00−27n239791 0.1 1005117
8 march, mon
mon801:00−28nw229887 0.1 100639
04:00−29wnw229896 0.1 100740
07:00−30w229893 0.1 100825
10:00−29wsw229793 0.1 100889
13:00−28sw339495 0.1 1008235
16:00−29sw239598 0.0 100889
19:00−32sw119988 0.1 100719
22:00−32se119993 0.0 100519
9 march, tue
tue901:00−30n229896 0.1 100360
04:00−30n339798 0.1 100192
07:00−31nnw349798 0.1 99973
10:00−31nnw349798 0.1 999164
13:00−30nw459697 0.1 999222
16:00−30nw459597 0.0 1001269
19:00−31wnw459598 0.1 1002198
22:00−31w3597100 0.1 1002204
10 march, wed
wed1001:00−31wsw3497100 0.1 1003153
04:00−30wsw359799 0.1 1004188
07:00−31sw359799 0.1 1004102
10:00−33sw3497100 0.0 100453
13:00−31sw469595 0.0 1005193
16:00−30ssw479599 0.0 1005191
19:00−32ssw4797100 0.1 1005109
22:00−32ssw4797100 0.0 1004120
11 march, thu
thu1101:00−33ssw5798100 0.1 1003101
04:00−34ssw579788 0.0 1001111
07:00−35ssw589680 0.0 999124
10:00−33ssw7129485 0.0 996261
13:00−29ssw8129493 0.1 994396
16:00−27sw81394100 0.2 992582
19:00−25sw81395100 0.5 991644
22:00−23sw81495100 0.3 989590